sat.trackr.live / text

‹ back to catalog

PRAETORIAN SDA_610

NORAD 65573 · 2025-203J

PAYLOAD ACTIVE UNKNOWN

§ Identity

Operator
Country
US
Launch date
2025-09-10
Launch site
AFWTR
Launch vehicle
Mass (kg)
RCS (m²)

Purposes: military

External: N2YO · Heavens-Above · Gunter

§ Orbital elements

Epoch: 2026-05-23T14:49:36.730272Z

Period
104.05 min
Inclination
81.3017°
Eccentricity
0.0005556
Mean motion
13.83916437 rev/d
Perigee alt
946.0 km
Apogee alt
954.1 km
Semi-major
7,328.2 km
B*
-3.9073e-5
RAAN
33.5115°
Arg perigee
263.8511°
Mean anomaly
96.2012°
Rev number
3,529

§ Raw data

PRAETORIAN SDA_6101 65573U 25203J   26143.61778623 -.00000032  00000+0 -39073-4 0  99962 65573  81.3017  33.5115 0005556 263.8511  96.2012 13.83916437 35297

JSON: /api/v1/satellites/65573 · /tle

For live sub-satellite position, see the globe view (requires WebGL).

§ Visibility from observer

Set your observer location to see the next 7 days of passes ≥ 10°. The values pass through the URL so the page stays shareable.

No JS? Fill the form by hand. The geolocation button needs JavaScript.

§ Radio — SatNOGS DB

ModeDescriptionDownlinkUplink
FM S-band telemetry 2.226 GHz

1 transmitter · refreshed weekly from db.satnogs.org